This is the latest recevied weather packets stored in our database for station/object DB0OHA-10. If no packets are shown the sender has not sent any weather packets the latest 10 day(s).
| Time | Temp. | Humidity | Pressure | Rain* | Wind** | Luminosity | Snow |
|---|---|---|---|---|---|---|---|
| 1777183231 | 5° C | 7% | 1023.6 hPa | 0 mm | - | 193 W/m² | - |
| 1777183226 | 5° C | 7% | 1023.6 hPa | 0 mm | - | 193 W/m² | - |
| 1777182335 | 4.44° C | 1% | 1023.5 hPa | 0 mm | - | 185 W/m² | - |
| 1777182326 | 4.44° C | 1% | 1023.5 hPa | 0 mm | - | 185 W/m² | - |
| 1777181426 | 4.44° C | 1% | 1023.4 hPa | 0 mm | - | 40 W/m² | - |
| 1777180526 | 3.89° C | 1% | 1023.2 hPa | 0 mm | - | 40 W/m² | - |
| 1777179630 | 3.89° C | 1% | 1023 hPa | 0 mm | - | 39 W/m² | - |
| 1777179628 | 3.89° C | 1% | 1023 hPa | 0 mm | - | 39 W/m² | - |
| 1777179626 | 3.89° C | 1% | 1023 hPa | 0 mm | - | 39 W/m² | - |
| 1777178726 | 3.89° C | 1% | 1022.7 hPa | 0 mm | - | 30 W/m² | - |
| 1777177826 | 3.89° C | 13% | 1022.6 hPa | 0 mm | - | 12 W/m² | - |
| 1777176933 | 3.89° C | 22% | 1022.3 hPa | 0 mm | - | 7 W/m² | - |
| 1777176926 | 3.89° C | 22% | 1022.3 hPa | 0 mm | - | 7 W/m² | - |
| 1777176026 | 3.89° C | 20% | 1022.1 hPa | 0 mm | - | 0 W/m² | - |
| 1777175126 | 4.44° C | 21% | 1022 hPa | 0 mm | - | 0 W/m² | - |
| 1777174226 | 4.44° C | 21% | 1021.7 hPa | 0 mm | - | 0 W/m² | - |
| 1777173326 | 4.44° C | 27% | 1021.7 hPa | 0 mm | - | 0 W/m² | - |
| 1777172486 | 3.89° C | 31% | 1021.4 hPa | 0 mm | - | 0 W/m² | - |
| 1777172426 | 3.89° C | 31% | 1021.4 hPa | 0 mm | - | 0 W/m² | - |
| 1777171526 | 4.44° C | 30% | 1021.2 hPa | 0 mm | - | 0 W/m² | - |
| 1777170626 | 4.44° C | 30% | 1021.1 hPa | 0 mm | - | 0 W/m² | - |
| 1777169731 | 4.44° C | 30% | 1020.9 hPa | 0 mm | - | 0 W/m² | - |
| 1777169726 | 4.44° C | 30% | 1020.9 hPa | 0 mm | - | 0 W/m² | - |
| 1777168826 | 4.44° C | 31% | 1020.8 hPa | 0 mm | - | 0 W/m² | - |
| 1777167926 | 5° C | 32% | 1020.6 hPa | 0 mm | - | 0 W/m² | - |
* Rain latest hour (hover to see other rain measurements)
** Current wind speed in m/s (hover to see current wind gust speed)